Погода в Буртунае

Россия / Республика Дагестан     42°59′23″N   46°37′48″E
темп.,
°C
ветер,
м/с
пор.,
м/с
влажн.,
%
обл.,
%
осадки,
мм/ч
давл.,
гПа
погр.,
м
6 мая, чт
чт600:00+5ююв339397 0.0 101851
03:00+5ююв3389100 0.0 101853
06:00+7ююв348242 0.0 1017147
09:00+12вюв446264 0.0 1015770
12:00+15в44532 0.0 1013906
15:00+14в44560 0.0 1013673
18:00+11вюв34670 0.0 1013203
21:00+8ююв11785 0.0 101525
7 мая, пт
пт700:00+8ююв22806 0.0 101418
03:00+8юз1178100 0.0 101312
06:00+10зсз118062 0.0 101566
09:00+13ссв3269100 0.0 1016547
12:00+16ссв336697 0.1 1016959
15:00+15с3465100 0.3 1016987
18:00+13с237652 0.0 1018203
21:00+10зюз227272 0.0 102023
8 мая, сб
сб800:00+10юз225215 0.0 102015
03:00+9ююз22512 0.0 101913
06:00+11ю22590 0.0 101945
09:00+17вюв34520 0.0 1017872
12:00+20в44503 0.0 10141234
15:00+19в446045 0.0 1013756
18:00+16вюв227558 0.1 1013150
21:00+14ююз1178100 0.1 101313
9 мая, вс
вс900:00+13юз1181100 0.0 101213
03:00+12зюз22813 0.0 101112
06:00+14ю12680 0.0 101033
09:00+20в23455 0.0 1006579
12:00+22ссв3247100 0.0 1004719
15:00+19сз667350 0.1 1006858
18:00+14зсз5892100 1.8 1009582
21:00+11сз81297100 7.4 1012808
10 мая, пн
пн1000:00+5з81294100 14.9 1018656
03:00+3зсз71393100 16.8 1019760
06:00+3з71388100 0.4 1020851
09:00+4зсз61187100 3.7 1020907
12:00+4з5887100 3.8 1020778
15:00+8зсз57669 5.0 10191112
18:00+7сз347536 0.0 1020345
21:00+5ююв128173 0.1 102163